TimePST,TemperatureF,Dew PointF,Humidity,Sea Level PressureIn,VisibilityMPH,Wind Direction,Wind SpeedMPH,Gust SpeedMPH,PrecipitationIn,Events,Conditions,WindDirDegrees,DateUTC
1:00 AM,-21,-28,57,30.74,,SW,2.3,,,,,220,2013-01-20 09:00:00
4:00 AM,-23,-30,54,30.68,,Calm,Calm,,,,,,2013-01-20 12:00:00
7:00 AM,-19,-25,60,30.61,,Calm,Calm,,,,,,2013-01-20 15:00:00
7:00 AM,-18.4,-25.6,70,30.60,20.0,Calm,Calm,-,N/A,Snow,Light Snow,0,2013-01-20 15:00:00
8:00 AM,-16.6,-23.8,70,30.57,20.0,Calm,Calm,-,N/A,Snow,Light Snow,0,2013-01-20 16:00:00
9:00 AM,-14.8,-22.0,70,30.55,20.0,Calm,Calm,-,N/A,Snow,Light Snow,0,2013-01-20 17:00:00
9:39 AM,-9999,-9999,N/A,-9999,3.0,Calm,Calm,-,N/A,,Unknown,0,2013-01-20 17:39:00
9:47 AM,-9999,-9999,N/A,-9999,2.5,Calm,Calm,-,N/A,,Unknown,0,2013-01-20 17:47:00
10:00 AM,-14,-20,60,30.55,,Calm,Calm,,,,,,2013-01-20 18:00:00
10:00 AM,-14.8,-22.0,70,30.55,2.0,Calm,Calm,-,N/A,Snow,Light Snow,0,2013-01-20 18:00:00
11:00 AM,-14.8,-22.0,70,30.53,2.0,Calm,Calm,-,N/A,Snow,Light Snow,0,2013-01-20 19:00:00
12:00 PM,-13.0,-20.2,70,30.52,2.5,Calm,Calm,-,N/A,Snow,Light Snow,0,2013-01-20 20:00:00
1:00 PM,-11,-17,63,30.48,,Calm,Calm,,,,,,2013-01-20 21:00:00
1:00 PM,-11.2,-16.6,77,30.49,2.5,Calm,Calm,-,N/A,Snow,Light Snow,0,2013-01-20 21:00:00
1:31 PM,-9999,-9999,N/A,-9999,3.0,Calm,Calm,-,N/A,,Unknown,0,2013-01-20 21:31:00
1:42 PM,-9999,-9999,N/A,-9999,7.0,Calm,Calm,-,N/A,,Unknown,0,2013-01-20 21:42:00
2:00 PM,-9.4,-14.8,77,30.46,7.0,Calm,Calm,-,N/A,Snow,Light Snow,0,2013-01-20 22:00:00
3:00 PM,-7.6,-13.0,77,30.43,7.0,Calm,Calm,-,N/A,Snow,Light Snow,0,2013-01-20 23:00:00
4:00 PM,-6,-12,65,30.41,,SSW,1.2,,,,,210,2013-01-21 00:00:00
4:00 PM,-5.8,-11.2,77,30.41,10.0,Calm,Calm,-,N/A,Snow,Light Snow,0,2013-01-21 00:00:00
7:00 PM,-5,-10,70,30.35,,Calm,Calm,,,,,,2013-01-21 03:00:00
10:00 PM,-4,-9,70,30.29,,Calm,Calm,,,,,,2013-01-21 06:00:00